DLH3FA EDDM-LPPT

Flight info

Callsign DLH3FA
Flight time 2h 57m
Altitude 24000
Route MERSI5S/26L MERSI Y100 UMTEX/N0382F230 Y100 TRA/N0462F390 DCT LUTIX DCT BENOT DCT NEMOS DCT NINTU DCT MEBAK/N0466F410 DCT REPSI DCT LERGA DCT MINSO DCT NARAK DCT AGN DCT LATEK DCT PPN DCT MIRPO DCT DGO DCT NEA DCT ARDID DCT INBOM
Aircraft A343/H-SDE2E3FGHIJ4J5M1RWXY/LB1D1

Departure

Time 2026-05-07 16:24
Airport Munich Airport (EDDM)

Arrival

Time 2026-05-07 19:21
Airport Lisbon Humberto Delgado Airport (LPPT)
Time Latitude Longitude Altitude Speed Heading
2026-05-07 16:05 48.35304 11.79313 1489 ft 0 kts 262°
2026-05-07 16:06 48.35305 11.79341 1474 ft 0 kts 262°
2026-05-07 16:11 48.35306 11.79354 1489 ft 4 kts 259°
2026-05-07 16:11 48.35313 11.79392 1489 ft 4 kts 244°
2026-05-07 16:11 48.35326 11.79424 1489 ft 4 kts 226°
2026-05-07 16:12 48.35347 11.79449 1474 ft 4 kts 206°
2026-05-07 16:12 48.35372 11.79462 1489 ft 4 kts 187°
2026-05-07 16:12 48.35395 11.79463 1489 ft 1 kts 174°
2026-05-07 16:12 48.35396 11.79463 1489 ft 0 kts 174°
2026-05-07 16:13 48.35398 11.79463 1489 ft 0 kts 174°
2026-05-07 16:16 48.35393 11.79464 1489 ft 4 kts 174°
2026-05-07 16:16 48.35334 11.79474 1483 ft 10 kts 173°
2026-05-07 16:17 48.35260 11.79488 1483 ft 11 kts 173°
2026-05-07 16:17 48.35168 11.79504 1476 ft 13 kts 174°
2026-05-07 16:17 48.35098 11.79552 1481 ft 10 kts 118°
2026-05-07 16:17 48.35082 11.79645 1474 ft 9 kts 131°
2026-05-07 16:18 48.35017 11.79665 1486 ft 11 kts 173°
2026-05-07 16:18 48.34935 11.79680 1476 ft 4 kts 173°
2026-05-07 16:18 48.34916 11.79683 1478 ft 5 kts 173°
2026-05-07 16:18 48.34905 11.79685 1489 ft 0 kts 173°
2026-05-07 16:20 48.34891 11.79688 1489 ft 7 kts 173°
2026-05-07 16:21 48.34823 11.79704 1479 ft 7 kts 158°
2026-05-07 16:21 48.34807 11.79749 1484 ft 9 kts 108°
2026-05-07 16:21 48.34816 11.79875 1489 ft 14 kts 83°
2026-05-07 16:21 48.34829 11.80045 1483 ft 17 kts 83°
2026-05-07 16:22 48.34843 11.80226 1480 ft 18 kts 83°
2026-05-07 16:22 48.34797 11.80371 1482 ft 15 kts 144°
2026-05-07 16:22 48.34695 11.80405 1475 ft 15 kts 173°
2026-05-07 16:22 48.34590 11.80425 1481 ft 16 kts 173°
2026-05-07 16:23 48.34487 11.80395 1474 ft 15 kts 229°
2026-05-07 16:23 48.34464 11.80239 1475 ft 20 kts 264°
2026-05-07 16:23 48.34441 11.79938 1482 ft 47 kts 263°
2026-05-07 16:23 48.34381 11.79161 1490 ft 103 kts 263°
2026-05-07 16:24 48.34281 11.77855 1490 ft 147 kts 263°
2026-05-07 16:24 48.34148 11.76176 1715 ft 166 kts 266°
2026-05-07 16:24 48.34045 11.74493 2370 ft 160 kts 269°
2026-05-07 16:24 48.33965 11.72826 3035 ft 160 kts 266°
2026-05-07 16:25 48.33827 11.71141 3671 ft 167 kts 264°
2026-05-07 16:25 48.33631 11.69267 3996 ft 194 kts 262°
2026-05-07 16:25 48.33383 11.67155 4480 ft 214 kts 262°
2026-05-07 16:25 48.33155 11.64875 5233 ft 225 kts 264°
2026-05-07 16:26 48.32989 11.62466 5963 ft 241 kts 266°
2026-05-07 16:26 48.32882 11.59864 6628 ft 256 kts 268°
2026-05-07 16:26 48.32782 11.57335 7469 ft 261 kts 266°
2026-05-07 16:26 48.32597 11.54612 8457 ft 262 kts 263°
2026-05-07 16:27 48.32327 11.51925 9449 ft 263 kts 261°
2026-05-07 16:27 48.32055 11.49201 10398 ft 264 kts 262°
2026-05-07 16:27 48.31828 11.46458 11274 ft 266 kts 264°
2026-05-07 16:27 48.31690 11.43674 12072 ft 270 kts 265°
2026-05-07 16:28 48.31528 11.40838 12851 ft 274 kts 264°
2026-05-07 16:28 48.31317 11.37970 13666 ft 277 kts 263°
2026-05-07 16:28 48.31083 11.35078 14414 ft 280 kts 263°
2026-05-07 16:28 48.30781 11.32145 15018 ft 287 kts 256°
2026-05-07 16:29 48.29912 11.29425 15650 ft 294 kts 234°
2026-05-07 16:29 48.28329 11.27393 16079 ft 312 kts 211°
2026-05-07 16:29 48.26286 11.26003 16354 ft 331 kts 205°
2026-05-07 16:29 48.24123 11.24685 16669 ft 347 kts 205°
2026-05-07 16:30 48.21829 11.23303 16966 ft 362 kts 205°
2026-05-07 16:30 48.19544 11.21630 17445 ft 369 kts 216°
2026-05-07 16:30 48.17602 11.19109 18000 ft 371 kts 232°
2026-05-07 16:30 48.16239 11.15820 18589 ft 372 kts 247°
2026-05-07 16:31 48.15285 11.12211 19263 ft 372 kts 252°
2026-05-07 16:31 48.14513 11.08539 19909 ft 375 kts 255°
2026-05-07 16:31 48.13802 11.04762 20491 ft 378 kts 256°
2026-05-07 16:31 48.13098 11.00944 21067 ft 382 kts 256°
2026-05-07 16:32 48.12371 10.97092 21625 ft 386 kts 255°
2026-05-07 16:32 48.11611 10.93200 22061 ft 393 kts 254°
2026-05-07 16:32 48.10820 10.89266 22586 ft 397 kts 254°
2026-05-07 16:32 48.10006 10.85302 23169 ft 400 kts 254°
2026-05-07 16:33 48.09179 10.81319 23693 ft 403 kts 253°
2026-05-07 16:33 48.08339 10.77292 24156 ft 406 kts 253°
2026-05-07 16:33 48.07493 10.73245 24593 ft 409 kts 253°
2026-05-07 16:33 48.06640 10.69169 25034 ft 411 kts 253°
2026-05-07 16:34 48.05784 10.65079 25478 ft 414 kts 253°
2026-05-07 16:34 48.04934 10.61023 25920 ft 416 kts 253°
2026-05-07 16:34 48.04064 10.56878 26346 ft 418 kts 253°
2026-05-07 16:34 48.03189 10.52717 26751 ft 421 kts 253°
2026-05-07 16:35 48.02309 10.48539 27166 ft 423 kts 253°
2026-05-07 16:35 48.01419 10.44327 27559 ft 426 kts 253°
2026-05-07 16:35 48.00527 10.40105 27946 ft 428 kts 253°
2026-05-07 16:35 47.99624 10.35849 28343 ft 430 kts 253°
2026-05-07 16:36 47.98716 10.31573 28712 ft 433 kts 253°
2026-05-07 16:36 47.97802 10.27280 29089 ft 435 kts 253°
2026-05-07 16:36 47.96880 10.22958 29428 ft 437 kts 253°
2026-05-07 16:36 47.95966 10.18682 29840 ft 438 kts 253°
2026-05-07 16:37 47.95038 10.14353 30213 ft 439 kts 253°
2026-05-07 16:37 47.94103 10.09998 30505 ft 441 kts 253°
2026-05-07 16:37 47.93160 10.05617 30789 ft 443 kts 253°
2026-05-07 16:37 47.92215 10.01231 31071 ft 445 kts 253°
2026-05-07 16:38 47.91262 9.96822 31342 ft 447 kts 253°
2026-05-07 16:38 47.90305 9.92401 31649 ft 448 kts 253°
2026-05-07 16:38 47.89348 9.87994 32040 ft 446 kts 253°
2026-05-07 16:38 47.88392 9.83601 32427 ft 445 kts 253°
2026-05-07 16:39 47.87447 9.79266 32812 ft 444 kts 253°
2026-05-07 16:39 47.86492 9.74890 33172 ft 443 kts 253°
2026-05-07 16:39 47.85537 9.70529 33556 ft 442 kts 253°
2026-05-07 16:39 47.84584 9.66182 33929 ft 441 kts 253°
2026-05-07 16:40 47.83766 9.61782 34217 ft 440 kts 259°
2026-05-07 16:40 47.83154 9.57319 34473 ft 440 kts 259°
2026-05-07 16:40 47.82585 9.52834 34711 ft 440 kts 260°
2026-05-07 16:40 47.82045 9.48379 35078 ft 437 kts 260°
2026-05-07 16:41 47.81520 9.43982 35363 ft 436 kts 260°
2026-05-07 16:41 47.80993 9.39552 35583 ft 436 kts 260°
2026-05-07 16:41 47.80459 9.35092 35804 ft 437 kts 260°
2026-05-07 16:41 47.79921 9.30642 36032 ft 437 kts 260°
2026-05-07 16:42 47.79379 9.26186 36241 ft 438 kts 260°
2026-05-07 16:42 47.78831 9.21714 36453 ft 439 kts 259°
2026-05-07 16:42 47.78280 9.17242 36677 ft 439 kts 259°
2026-05-07 16:42 47.77728 9.12776 36925 ft 439 kts 259°
2026-05-07 16:43 47.77175 9.08319 37167 ft 439 kts 259°
2026-05-07 16:43 47.76626 9.03912 37368 ft 439 kts 259°
2026-05-07 16:43 47.76070 8.99458 37599 ft 439 kts 259°
2026-05-07 16:43 47.75511 8.94997 37816 ft 439 kts 259°
2026-05-07 16:44 47.74950 8.90537 38031 ft 439 kts 259°
2026-05-07 16:44 47.74389 8.86086 38242 ft 439 kts 259°
2026-05-07 16:44 47.73824 8.81619 38443 ft 439 kts 259°
2026-05-07 16:44 47.73257 8.77151 38641 ft 439 kts 259°
2026-05-07 16:45 47.72689 8.72685 38806 ft 439 kts 259°
2026-05-07 16:45 47.72126 8.68277 38957 ft 439 kts 259°
2026-05-07 16:45 47.71553 8.63809 39017 ft 442 kts 259°
2026-05-07 16:46 47.70395 8.54815 39021 ft 442 kts 258°
2026-05-07 16:46 47.68982 8.45947 39017 ft 440 kts 250°
2026-05-07 16:47 47.66181 8.37964 39018 ft 439 kts 237°
2026-05-07 16:47 47.62683 8.30531 39015 ft 439 kts 235°
2026-05-07 16:48 47.59075 8.23206 39010 ft 439 kts 235°
2026-05-07 16:48 47.55496 8.15933 39011 ft 439 kts 235°
2026-05-07 16:49 47.51907 8.08601 39010 ft 439 kts 235°
2026-05-07 16:49 47.48325 8.01277 39010 ft 439 kts 235°
2026-05-07 16:50 47.44744 7.93972 39009 ft 439 kts 235°
2026-05-07 16:50 47.41154 7.86670 39013 ft 439 kts 235°
2026-05-07 16:51 47.37565 7.79391 39012 ft 439 kts 235°
2026-05-07 16:51 47.33985 7.72151 39010 ft 439 kts 235°
2026-05-07 16:52 47.30378 7.64877 39011 ft 438 kts 235°
2026-05-07 16:52 47.26777 7.57632 39012 ft 438 kts 235°
2026-05-07 16:53 47.23176 7.50406 39011 ft 438 kts 235°
2026-05-07 16:53 47.19584 7.43216 39001 ft 438 kts 235°
2026-05-07 16:54 47.15965 7.35992 39000 ft 438 kts 235°
2026-05-07 16:54 47.12230 7.28961 38984 ft 438 kts 232°
2026-05-07 16:55 47.08394 7.22018 39010 ft 438 kts 232°
2026-05-07 16:55 47.04568 7.15069 39019 ft 437 kts 232°
2026-05-07 16:56 47.00760 7.08112 39016 ft 437 kts 233°
2026-05-07 16:56 46.95068 6.97713 39016 ft 437 kts 233°
2026-05-07 16:57 46.91305 6.90822 39020 ft 428 kts 233°
2026-05-07 16:57 46.87622 6.84080 39019 ft 420 kts 233°
2026-05-07 16:58 46.83922 6.77415 39024 ft 426 kts 232°
2026-05-07 16:58 46.80157 6.70682 39021 ft 435 kts 232°
2026-05-07 16:59 46.76289 6.63748 39011 ft 443 kts 232°
2026-05-07 16:59 46.72360 6.56700 39011 ft 451 kts 232°
2026-05-07 17:00 46.68371 6.49559 39014 ft 456 kts 232°
2026-05-07 17:00 46.64364 6.42407 39014 ft 455 kts 232°
2026-05-07 17:01 46.60380 6.35316 39006 ft 454 kts 232°
2026-05-07 17:01 46.56360 6.28177 39005 ft 455 kts 232°
2026-05-07 17:02 46.52369 6.21108 39004 ft 455 kts 232°
2026-05-07 17:02 46.48348 6.14004 38998 ft 455 kts 232°
2026-05-07 17:03 46.44319 6.06906 39005 ft 455 kts 232°
2026-05-07 17:03 46.40294 5.99831 38989 ft 455 kts 232°
2026-05-07 17:04 46.36292 5.92815 38996 ft 453 kts 232°
2026-05-07 17:04 46.32268 5.85779 38996 ft 453 kts 231°
2026-05-07 17:05 46.28239 5.78750 38994 ft 453 kts 231°
2026-05-07 17:05 46.24887 5.72918 38994 ft 453 kts 231°
2026-05-07 17:06 46.20198 5.64777 38991 ft 453 kts 231°
2026-05-07 17:06 46.16842 5.58967 38993 ft 452 kts 231°
2026-05-07 17:07 46.13033 5.51743 38998 ft 452 kts 236°
2026-05-07 17:07 46.09433 5.44310 38993 ft 452 kts 236°
2026-05-07 17:08 46.05884 5.36901 38990 ft 452 kts 236°
2026-05-07 17:08 46.02313 5.29465 38988 ft 451 kts 236°
2026-05-07 17:09 45.98732 5.22046 38984 ft 451 kts 236°
2026-05-07 17:09 45.95145 5.14639 38978 ft 451 kts 236°
2026-05-07 17:10 45.91553 5.07243 38974 ft 452 kts 236°
2026-05-07 17:10 45.87949 4.99842 38991 ft 452 kts 236°
2026-05-07 17:11 45.84361 4.92492 38989 ft 452 kts 235°
2026-05-07 17:11 45.80750 4.85116 38992 ft 451 kts 235°
2026-05-07 17:12 45.77140 4.77757 38993 ft 451 kts 235°
2026-05-07 17:12 45.73523 4.70406 39003 ft 451 kts 235°
2026-05-07 17:13 45.69903 4.63066 38985 ft 451 kts 235°
2026-05-07 17:13 45.66299 4.55773 38985 ft 451 kts 235°
2026-05-07 17:14 45.62662 4.48436 38991 ft 451 kts 235°
2026-05-07 17:14 45.59027 4.41121 38993 ft 451 kts 235°
2026-05-07 17:15 45.55391 4.33822 38993 ft 451 kts 235°
2026-05-07 17:15 45.51774 4.26579 38996 ft 451 kts 235°
2026-05-07 17:16 45.48115 4.19284 38993 ft 451 kts 234°
2026-05-07 17:16 45.44464 4.12016 38989 ft 451 kts 234°
2026-05-07 17:17 45.40802 4.04746 38984 ft 451 kts 234°
2026-05-07 17:17 45.37137 3.97491 38975 ft 451 kts 234°
2026-05-07 17:18 45.33484 3.90276 38977 ft 451 kts 234°
2026-05-07 17:18 45.29804 3.83027 38977 ft 451 kts 234°
2026-05-07 17:19 45.26146 3.75840 38982 ft 451 kts 234°
2026-05-07 17:19 45.22506 3.68579 38958 ft 451 kts 235°
2026-05-07 17:20 45.18927 3.61264 38961 ft 451 kts 235°
2026-05-07 17:20 45.15338 3.53948 38955 ft 451 kts 235°
2026-05-07 17:21 45.11737 3.46660 38954 ft 451 kts 235°
2026-05-07 17:21 45.08126 3.39387 38955 ft 451 kts 235°
2026-05-07 17:22 45.04529 3.32163 38957 ft 451 kts 235°
2026-05-07 17:22 45.00905 3.24902 38956 ft 451 kts 235°
2026-05-07 17:23 44.97283 3.17662 38958 ft 451 kts 235°
2026-05-07 17:23 44.93682 3.10482 38947 ft 451 kts 235°
2026-05-07 17:24 44.90050 3.03258 38966 ft 450 kts 234°
2026-05-07 17:24 44.86413 2.96042 38958 ft 451 kts 234°
2026-05-07 17:25 44.82834 2.88828 38960 ft 451 kts 236°
2026-05-07 17:25 44.79433 2.81388 38958 ft 451 kts 237°
2026-05-07 17:26 44.76063 2.73933 38963 ft 451 kts 237°
2026-05-07 17:26 44.72659 2.66511 38966 ft 451 kts 237°
2026-05-07 17:27 44.69247 2.59147 38962 ft 452 kts 237°
2026-05-07 17:27 44.65803 2.51749 38962 ft 452 kts 237°
2026-05-07 17:28 44.62357 2.44362 38962 ft 452 kts 237°
2026-05-07 17:28 44.58907 2.36983 38950 ft 452 kts 237°
2026-05-07 17:29 44.55450 2.29607 38963 ft 452 kts 236°
2026-05-07 17:29 44.52010 2.22286 38962 ft 452 kts 236°
2026-05-07 17:30 44.48536 2.14912 38959 ft 453 kts 236°
2026-05-07 17:30 44.45058 2.07549 38957 ft 453 kts 236°
2026-05-07 17:31 44.41599 2.00242 38954 ft 453 kts 236°
2026-05-07 17:31 44.38113 1.92899 38949 ft 453 kts 236°
2026-05-07 17:32 44.34626 1.85571 38946 ft 453 kts 236°
2026-05-07 17:32 44.31132 1.78248 38944 ft 453 kts 236°
2026-05-07 17:33 44.27652 1.70915 38941 ft 453 kts 237°
2026-05-07 17:33 44.24262 1.63513 38941 ft 453 kts 237°
2026-05-07 17:34 44.20879 1.56093 38936 ft 453 kts 237°
2026-05-07 17:34 44.17477 1.48692 38939 ft 453 kts 237°
2026-05-07 17:35 44.14088 1.41363 38939 ft 453 kts 237°
2026-05-07 17:35 44.10661 1.33977 38936 ft 453 kts 237°
2026-05-07 17:36 44.07231 1.26603 38932 ft 453 kts 237°
2026-05-07 17:36 44.03800 1.19242 38933 ft 453 kts 237°
2026-05-07 17:37 44.00365 1.11894 38935 ft 453 kts 237°
2026-05-07 17:37 43.96940 1.04583 38927 ft 454 kts 237°
2026-05-07 17:38 43.93482 0.97220 38930 ft 455 kts 237°
2026-05-07 17:38 43.90020 0.89878 38930 ft 455 kts 236°
2026-05-07 17:39 43.86064 0.83039 38931 ft 455 kts 230°
2026-05-07 17:39 43.81893 0.76517 38926 ft 455 kts 229°
2026-05-07 17:40 43.77636 0.69985 38933 ft 456 kts 229°
2026-05-07 17:40 43.73373 0.63448 38934 ft 457 kts 229°
2026-05-07 17:41 43.69139 0.56951 38931 ft 457 kts 229°
2026-05-07 17:41 43.64882 0.50423 38927 ft 457 kts 229°
2026-05-07 17:42 43.60619 0.43900 38930 ft 457 kts 229°
2026-05-07 17:42 43.56359 0.37398 38932 ft 457 kts 229°
2026-05-07 17:43 43.52074 0.30874 38930 ft 459 kts 229°
2026-05-07 17:43 43.47807 0.24392 38927 ft 460 kts 229°
2026-05-07 17:44 43.43507 0.17874 38932 ft 460 kts 229°
2026-05-07 17:44 43.39200 0.11360 38934 ft 460 kts 229°
2026-05-07 17:45 43.34892 0.04860 38933 ft 460 kts 229°
2026-05-07 17:45 43.30572 -0.01643 38942 ft 460 kts 228°
2026-05-07 17:46 43.26278 -0.08093 38939 ft 461 kts 228°
2026-05-07 17:46 43.21948 -0.14582 38934 ft 461 kts 228°
2026-05-07 17:47 43.17603 -0.21078 38941 ft 461 kts 228°
2026-05-07 17:47 43.13265 -0.27550 38943 ft 461 kts 228°
2026-05-07 17:48 43.08920 -0.34018 38952 ft 461 kts 228°
2026-05-07 17:48 43.04572 -0.40475 38956 ft 461 kts 228°
2026-05-07 17:49 43.00245 -0.46887 38956 ft 462 kts 228°
2026-05-07 17:49 42.95885 -0.53333 38963 ft 462 kts 228°
2026-05-07 17:50 42.91528 -0.59779 38968 ft 461 kts 229°
2026-05-07 17:50 42.87991 -0.67036 38957 ft 460 kts 245°
2026-05-07 17:51 42.86138 -0.75404 39090 ft 464 kts 257°
2026-05-07 17:51 42.85522 -0.79714 39218 ft 464 kts 259°
2026-05-07 17:51 42.84970 -0.84054 39323 ft 465 kts 259°
2026-05-07 17:52 42.83907 -0.92693 39389 ft 465 kts 259°
2026-05-07 17:52 42.82792 -1.01377 39412 ft 465 kts 259°
2026-05-07 17:53 42.81635 -1.10062 39406 ft 465 kts 259°
2026-05-07 17:53 42.80462 -1.18743 39400 ft 466 kts 259°
2026-05-07 17:54 42.79289 -1.27382 39390 ft 467 kts 258°
2026-05-07 17:54 42.78302 -1.34614 39386 ft 467 kts 258°
2026-05-07 17:55 42.77110 -1.43305 39381 ft 467 kts 258°
2026-05-07 17:55 42.75911 -1.51996 39368 ft 467 kts 258°
2026-05-07 17:56 42.74705 -1.60693 39405 ft 467 kts 258°
2026-05-07 17:56 42.73451 -1.69376 39404 ft 467 kts 255°
2026-05-07 17:57 42.72587 -1.73622 39600 ft 463 kts 253°
2026-05-07 17:57 42.71698 -1.77729 40140 ft 453 kts 253°
2026-05-07 17:57 42.70792 -1.81803 40574 ft 447 kts 252°
2026-05-07 17:57 42.69879 -1.85843 40847 ft 444 kts 252°
2026-05-07 17:58 42.68043 -1.93913 40934 ft 448 kts 252°
2026-05-07 17:58 42.66205 -2.01980 40924 ft 446 kts 252°
2026-05-07 17:59 42.64382 -2.09975 40927 ft 445 kts 252°
2026-05-07 17:59 42.62579 -2.17859 40910 ft 445 kts 252°
2026-05-07 18:00 42.60771 -2.25388 40919 ft 445 kts 251°
2026-05-07 18:00 42.59086 -2.32241 40905 ft 445 kts 251°
2026-05-07 18:01 42.57130 -2.40203 40914 ft 445 kts 251°
2026-05-07 18:01 42.55189 -2.48131 40915 ft 445 kts 251°
2026-05-07 18:02 42.52257 -2.60084 40920 ft 445 kts 251°
2026-05-07 18:03 42.50293 -2.68054 40936 ft 445 kts 251°
2026-05-07 18:03 42.48331 -2.75989 40929 ft 443 kts 251°
2026-05-07 18:04 42.46380 -2.83855 40940 ft 443 kts 251°
2026-05-07 18:04 42.44116 -2.91610 40923 ft 442 kts 246°
2026-05-07 18:05 42.41574 -2.99208 40935 ft 443 kts 245°
2026-05-07 18:05 42.38979 -3.06787 40927 ft 443 kts 246°
2026-05-07 18:06 42.36385 -3.14345 40941 ft 443 kts 246°
2026-05-07 18:06 42.33812 -3.21847 40934 ft 442 kts 246°
2026-05-07 18:07 42.31222 -3.29389 40933 ft 442 kts 246°
2026-05-07 18:07 42.28625 -3.36931 40936 ft 442 kts 246°
2026-05-07 18:08 42.26027 -3.44458 40936 ft 442 kts 246°
2026-05-07 18:08 42.23417 -3.51994 40936 ft 443 kts 246°
2026-05-07 18:09 42.20808 -3.59512 40937 ft 443 kts 246°
2026-05-07 18:09 42.18186 -3.67042 40923 ft 443 kts 246°
2026-05-07 18:10 42.15578 -3.74510 40919 ft 443 kts 246°
2026-05-07 18:10 42.12948 -3.82023 40915 ft 443 kts 246°
2026-05-07 18:11 42.10314 -3.89523 40919 ft 441 kts 246°
2026-05-07 18:11 42.07684 -3.96991 40919 ft 441 kts 246°
2026-05-07 18:12 42.05067 -4.04404 40917 ft 441 kts 246°
2026-05-07 18:12 42.02429 -4.11857 40920 ft 441 kts 246°
2026-05-07 18:13 41.99681 -4.19236 40917 ft 441 kts 244°
2026-05-07 18:13 41.96846 -4.26578 40916 ft 441 kts 244°
2026-05-07 18:14 41.94025 -4.33903 40920 ft 441 kts 244°
2026-05-07 18:14 41.91230 -4.41198 40921 ft 441 kts 244°
2026-05-07 18:15 41.88425 -4.48525 40916 ft 441 kts 244°
2026-05-07 18:15 41.85616 -4.55841 40918 ft 440 kts 244°
2026-05-07 18:16 41.82825 -4.63091 40918 ft 439 kts 245°
2026-05-07 18:16 41.80024 -4.70346 40914 ft 438 kts 245°
2026-05-07 18:17 41.77222 -4.77588 40910 ft 437 kts 244°
2026-05-07 18:17 41.74416 -4.84823 40912 ft 437 kts 244°
2026-05-07 18:18 41.71603 -4.92057 40912 ft 438 kts 244°
2026-05-07 18:18 41.68853 -4.99109 40912 ft 437 kts 245°
2026-05-07 18:19 41.66043 -5.06300 40895 ft 434 kts 245°
2026-05-07 18:19 41.63294 -5.13314 40911 ft 432 kts 245°
2026-05-07 18:20 41.60505 -5.20417 40903 ft 431 kts 244°
2026-05-07 18:20 41.57730 -5.27469 40901 ft 431 kts 244°
2026-05-07 18:21 41.54938 -5.34544 40892 ft 431 kts 244°
2026-05-07 18:21 41.52148 -5.41595 40891 ft 428 kts 244°
2026-05-07 18:22 41.49371 -5.48598 40886 ft 427 kts 244°
2026-05-07 18:22 41.46588 -5.55601 40884 ft 427 kts 244°
2026-05-07 18:23 41.43805 -5.62588 40884 ft 427 kts 244°
2026-05-07 18:23 41.41035 -5.69527 40875 ft 426 kts 244°
2026-05-07 18:24 41.38248 -5.76493 40881 ft 425 kts 244°
2026-05-07 18:24 41.35467 -5.83426 40875 ft 424 kts 244°
2026-05-07 18:25 41.32675 -5.90371 40875 ft 424 kts 244°
2026-05-07 18:25 41.29918 -5.97211 40873 ft 425 kts 244°
2026-05-07 18:26 41.27139 -6.04090 40870 ft 425 kts 244°
2026-05-07 18:26 41.23987 -6.10752 40866 ft 426 kts 237°
2026-05-07 18:27 41.20503 -6.17212 40869 ft 428 kts 237°
2026-05-07 18:27 41.17020 -6.23601 40859 ft 428 kts 237°
2026-05-07 18:28 41.13540 -6.29960 40865 ft 428 kts 236°
2026-05-07 18:28 41.10037 -6.36346 40865 ft 428 kts 236°
2026-05-07 18:29 41.06531 -6.42724 40864 ft 428 kts 236°
2026-05-07 18:29 41.03015 -6.49106 40863 ft 428 kts 236°
2026-05-07 18:30 40.99526 -6.55425 40862 ft 427 kts 236°
2026-05-07 18:30 40.96014 -6.61774 40862 ft 427 kts 236°
2026-05-07 18:31 40.92499 -6.68116 40858 ft 427 kts 236°
2026-05-07 18:31 40.88982 -6.74448 40861 ft 425 kts 236°
2026-05-07 18:32 40.85501 -6.80704 40862 ft 425 kts 236°
2026-05-07 18:32 40.82001 -6.86980 40867 ft 424 kts 236°
2026-05-07 18:33 40.78508 -6.93231 40864 ft 422 kts 236°
2026-05-07 18:33 40.75024 -6.99454 40869 ft 421 kts 236°
2026-05-07 18:34 40.71721 -7.05341 40872 ft 421 kts 236°
2026-05-07 18:34 40.68233 -7.11548 40857 ft 421 kts 236°
2026-05-07 18:35 40.64746 -7.17738 40870 ft 419 kts 236°
2026-05-07 18:35 40.61267 -7.23904 40875 ft 419 kts 236°
2026-05-07 18:36 40.57790 -7.30053 40879 ft 418 kts 235°
2026-05-07 18:36 40.54340 -7.36142 40875 ft 417 kts 235°
2026-05-07 18:37 40.50870 -7.42256 40878 ft 417 kts 235°
2026-05-07 18:37 40.47395 -7.48365 40887 ft 417 kts 235°
2026-05-07 18:38 40.43912 -7.54476 40889 ft 417 kts 235°
2026-05-07 18:38 40.42197 -7.57481 40770 ft 414 kts 235°
2026-05-07 18:38 40.40472 -7.60498 40359 ft 413 kts 235°
2026-05-07 18:38 40.38747 -7.63516 39906 ft 412 kts 235°
2026-05-07 18:39 40.37028 -7.66519 39419 ft 411 kts 235°
2026-05-07 18:39 40.35315 -7.69509 38963 ft 410 kts 236°
2026-05-07 18:39 40.33605 -7.72491 38491 ft 408 kts 236°
2026-05-07 18:39 40.31895 -7.75469 37924 ft 407 kts 236°
2026-05-07 18:40 40.30198 -7.78422 37405 ft 405 kts 236°
2026-05-07 18:40 40.29074 -7.80377 37086 ft 402 kts 236°
2026-05-07 18:40 40.26848 -7.84244 36445 ft 400 kts 236°
2026-05-07 18:40 40.25175 -7.87149 35968 ft 399 kts 236°
2026-05-07 18:41 40.23504 -7.90048 35439 ft 399 kts 235°
2026-05-07 18:41 40.22395 -7.91969 35088 ft 399 kts 235°
2026-05-07 18:41 40.20722 -7.94866 34532 ft 400 kts 235°
2026-05-07 18:41 40.19039 -7.97776 33946 ft 401 kts 235°
2026-05-07 18:42 40.17350 -8.00697 33294 ft 403 kts 235°
2026-05-07 18:42 40.15651 -8.03629 32652 ft 404 kts 235°
2026-05-07 18:42 40.13952 -8.06560 32020 ft 405 kts 235°
2026-05-07 18:42 40.12243 -8.09506 31359 ft 407 kts 235°
2026-05-07 18:43 40.10536 -8.12445 30865 ft 404 kts 234°
2026-05-07 18:43 40.08842 -8.15358 30416 ft 401 kts 234°
2026-05-07 18:43 40.07164 -8.18240 30135 ft 394 kts 234°
2026-05-07 18:43 40.05549 -8.21012 30024 ft 383 kts 234°
2026-05-07 18:44 40.03953 -8.23748 29800 ft 374 kts 234°
2026-05-07 18:44 40.02260 -8.26323 29373 ft 373 kts 226°
2026-05-07 18:44 40.00246 -8.28470 28968 ft 376 kts 216°
2026-05-07 18:44 39.97901 -8.30044 28630 ft 387 kts 204°
2026-05-07 18:45 39.95232 -8.30964 28560 ft 407 kts 193°
2026-05-07 18:45 39.92465 -8.31448 28358 ft 403 kts 191°
2026-05-07 18:45 39.89702 -8.31855 28072 ft 395 kts 191°
2026-05-07 18:45 39.87001 -8.32249 27863 ft 386 kts 191°
2026-05-07 18:46 39.84364 -8.32639 27681 ft 377 kts 191°
2026-05-07 18:46 39.81789 -8.33026 27477 ft 368 kts 191°
2026-05-07 18:46 39.79267 -8.33408 27178 ft 363 kts 191°
2026-05-07 18:46 39.76766 -8.33835 26913 ft 356 kts 195°
2026-05-07 18:47 39.74365 -8.34670 26905 ft 362 kts 204°
2026-05-07 18:47 39.72060 -8.36127 26915 ft 374 kts 214°
2026-05-07 18:47 39.69951 -8.38136 26862 ft 388 kts 220°
2026-05-07 18:47 39.67822 -8.40406 26817 ft 403 kts 221°
2026-05-07 18:48 39.65649 -8.42758 26587 ft 406 kts 221°
2026-05-07 18:48 39.63481 -8.45104 26121 ft 405 kts 221°
2026-05-07 18:48 39.61325 -8.47434 25657 ft 401 kts 221°
2026-05-07 18:48 39.59185 -8.49744 25219 ft 398 kts 221°
2026-05-07 18:49 39.57058 -8.52038 24755 ft 395 kts 220°
2026-05-07 18:49 39.54948 -8.54312 24315 ft 393 kts 220°
2026-05-07 18:49 39.52878 -8.56540 23897 ft 390 kts 220°
2026-05-07 18:49 39.50797 -8.58779 23440 ft 387 kts 220°
2026-05-07 18:50 39.48732 -8.60999 22923 ft 385 kts 220°
2026-05-07 18:50 39.46674 -8.63210 22408 ft 383 kts 220°
2026-05-07 18:50 39.44640 -8.65392 21917 ft 382 kts 220°
2026-05-07 18:50 39.42595 -8.67586 21423 ft 381 kts 220°
2026-05-07 18:51 39.40566 -8.69761 20947 ft 377 kts 219°
2026-05-07 18:51 39.38559 -8.71910 20484 ft 373 kts 219°
2026-05-07 18:51 39.36567 -8.74042 20032 ft 369 kts 219°
2026-05-07 18:51 39.34598 -8.76147 19569 ft 365 kts 218°
2026-05-07 18:52 39.32649 -8.78229 19118 ft 362 kts 218°
2026-05-07 18:52 39.30714 -8.80295 18686 ft 359 kts 218°
2026-05-07 18:52 39.28796 -8.82342 18234 ft 356 kts 218°
2026-05-07 18:52 39.26887 -8.84377 17741 ft 354 kts 218°
2026-05-07 18:53 39.25024 -8.86361 17244 ft 347 kts 218°
2026-05-07 18:53 39.23228 -8.88276 16817 ft 323 kts 218°
2026-05-07 18:53 39.21547 -8.90068 16308 ft 305 kts 218°
2026-05-07 18:53 39.19932 -8.91784 15834 ft 298 kts 218°
2026-05-07 18:54 39.18331 -8.93484 15355 ft 297 kts 218°
2026-05-07 18:54 39.16740 -8.95171 14893 ft 296 kts 217°
2026-05-07 18:54 39.15159 -8.96847 14457 ft 298 kts 218°
2026-05-07 18:54 39.13527 -8.98576 13984 ft 302 kts 217°
2026-05-07 18:55 39.11914 -9.00285 13526 ft 305 kts 218°
2026-05-07 18:55 39.10265 -9.02031 13023 ft 308 kts 218°
2026-05-07 18:55 39.08605 -9.03788 12521 ft 310 kts 217°
2026-05-07 18:55 39.06926 -9.05564 12051 ft 311 kts 217°
2026-05-07 18:56 39.05275 -9.07310 11621 ft 311 kts 217°
2026-05-07 18:56 39.03607 -9.09072 11293 ft 307 kts 217°
2026-05-07 18:56 39.01969 -9.10804 11018 ft 302 kts 218°
2026-05-07 18:56 39.00362 -9.12501 10743 ft 296 kts 218°
2026-05-07 18:57 38.98781 -9.14168 10452 ft 291 kts 217°
2026-05-07 18:57 38.97224 -9.15809 10200 ft 287 kts 218°
2026-05-07 18:57 38.95795 -9.17314 9950 ft 283 kts 218°
2026-05-07 18:57 38.94280 -9.18910 9670 ft 279 kts 218°
2026-05-07 18:58 38.92862 -9.20401 9388 ft 276 kts 218°
2026-05-07 18:58 38.91454 -9.21882 9121 ft 272 kts 218°
2026-05-07 18:58 38.89996 -9.23414 8823 ft 271 kts 218°
2026-05-07 18:58 38.88535 -9.24948 8540 ft 270 kts 218°
2026-05-07 18:59 38.87089 -9.26467 8257 ft 268 kts 218°
2026-05-07 18:59 38.85646 -9.27980 8000 ft 267 kts 218°
2026-05-07 18:59 38.84267 -9.29427 7936 ft 266 kts 218°
2026-05-07 18:59 38.82831 -9.30932 7937 ft 266 kts 218°
2026-05-07 19:00 38.81446 -9.32384 7934 ft 266 kts 218°
2026-05-07 19:00 38.80028 -9.33869 7938 ft 266 kts 218°
2026-05-07 19:00 38.78596 -9.35368 7939 ft 265 kts 218°
2026-05-07 19:00 38.77163 -9.36868 7939 ft 265 kts 218°
2026-05-07 19:01 38.75732 -9.38364 7939 ft 265 kts 218°
2026-05-07 19:01 38.74331 -9.39828 7928 ft 254 kts 218°
2026-05-07 19:01 38.72997 -9.41224 7930 ft 241 kts 218°
2026-05-07 19:01 38.71717 -9.42561 7934 ft 234 kts 218°
2026-05-07 19:02 38.70472 -9.43861 7938 ft 233 kts 218°
2026-05-07 19:02 38.69209 -9.45178 7940 ft 234 kts 218°
2026-05-07 19:02 38.67941 -9.46498 7945 ft 234 kts 218°
2026-05-07 19:02 38.66675 -9.47816 7938 ft 235 kts 219°
2026-05-07 19:03 38.65401 -9.49143 7939 ft 236 kts 219°
2026-05-07 19:03 38.64131 -9.50466 7939 ft 236 kts 218°
2026-05-07 19:03 38.62858 -9.51790 7941 ft 235 kts 218°
2026-05-07 19:03 38.61589 -9.53110 7939 ft 235 kts 218°
2026-05-07 19:04 38.60279 -9.54369 7936 ft 235 kts 210°
2026-05-07 19:04 38.58739 -9.55044 7939 ft 236 kts 186°
2026-05-07 19:04 38.57103 -9.54896 7944 ft 237 kts 172°
2026-05-07 19:04 38.55482 -9.54485 7940 ft 238 kts 170°
2026-05-07 19:05 38.53862 -9.54047 7944 ft 238 kts 170°
2026-05-07 19:05 38.52236 -9.53616 7942 ft 239 kts 170°
2026-05-07 19:05 38.50632 -9.53181 7936 ft 238 kts 168°
2026-05-07 19:05 38.49098 -9.52369 7939 ft 241 kts 152°
2026-05-07 19:06 38.47722 -9.51259 7940 ft 242 kts 149°
2026-05-07 19:06 38.45095 -9.48996 7939 ft 243 kts 149°
2026-05-07 19:06 38.43692 -9.47793 7942 ft 243 kts 149°
2026-05-07 19:07 38.42299 -9.46575 7939 ft 244 kts 145°
2026-05-07 19:07 38.41148 -9.45062 7944 ft 246 kts 129°
2026-05-07 19:07 38.40176 -9.43283 7940 ft 245 kts 127°
2026-05-07 19:07 38.39233 -9.41467 7844 ft 244 kts 125°
2026-05-07 19:08 38.38277 -9.39636 8048 ft 250 kts 127°
2026-05-07 19:08 38.37344 -9.37852 7824 ft 244 kts 127°
2026-05-07 19:08 38.36499 -9.36132 8049 ft 250 kts 117°
2026-05-07 19:08 38.35932 -9.34011 8006 ft 253 kts 107°
2026-05-07 19:09 38.35601 -9.31953 7939 ft 249 kts 104°
2026-05-07 19:09 38.35276 -9.29774 7942 ft 250 kts 104°
2026-05-07 19:09 38.34944 -9.27596 7942 ft 250 kts 104°
2026-05-07 19:09 38.34607 -9.25420 7941 ft 250 kts 104°
2026-05-07 19:10 38.34446 -9.23211 7937 ft 254 kts 89°
2026-05-07 19:10 38.34695 -9.20978 7943 ft 255 kts 82°
2026-05-07 19:10 38.35039 -9.18788 7937 ft 255 kts 81°
2026-05-07 19:10 38.35401 -9.16577 7937 ft 255 kts 80°
2026-05-07 19:11 38.36076 -9.14479 7937 ft 259 kts 56°
2026-05-07 19:11 38.37447 -9.13011 7940 ft 260 kts 24°
2026-05-07 19:11 38.39203 -9.12649 7938 ft 255 kts 351°
2026-05-07 19:11 38.40807 -9.13432 7937 ft 244 kts 320°
2026-05-07 19:12 38.41867 -9.14972 7943 ft 237 kts 295°
2026-05-07 19:12 38.42572 -9.16782 7940 ft 237 kts 293°
2026-05-07 19:12 38.43484 -9.18351 7934 ft 233 kts 313°
2026-05-07 19:12 38.44687 -9.19640 7929 ft 224 kts 319°
2026-05-07 19:13 38.45898 -9.20817 7929 ft 213 kts 320°
2026-05-07 19:13 38.47049 -9.21925 7925 ft 202 kts 319°
2026-05-07 19:13 38.48162 -9.23000 7938 ft 200 kts 319°
2026-05-07 19:13 38.49269 -9.24072 7922 ft 196 kts 319°
2026-05-07 19:14 38.50266 -9.25038 7752 ft 196 kts 318°
2026-05-07 19:14 38.51358 -9.26099 7508 ft 198 kts 319°
2026-05-07 19:14 38.52455 -9.27164 7193 ft 205 kts 319°
2026-05-07 19:14 38.53625 -9.28305 6751 ft 216 kts 319°
2026-05-07 19:15 38.54846 -9.29423 6328 ft 215 kts 328°
2026-05-07 19:15 38.56285 -9.29820 5873 ft 216 kts
2026-05-07 19:15 38.57565 -9.28905 5440 ft 215 kts 52°
2026-05-07 19:15 38.58255 -9.27235 5018 ft 212 kts 69°
2026-05-07 19:16 38.58776 -9.25468 4565 ft 212 kts 69°
2026-05-07 19:16 38.59510 -9.23883 4093 ft 206 kts 42°
2026-05-07 19:16 38.60643 -9.22892 3763 ft 195 kts 20°
2026-05-07 19:16 38.61866 -9.22267 3508 ft 185 kts 17°
2026-05-07 19:17 38.63047 -9.21657 3264 ft 181 kts 18°
2026-05-07 19:17 38.64064 -9.21103 3097 ft 173 kts 17°
2026-05-07 19:17 38.65179 -9.20509 2830 ft 166 kts 18°
2026-05-07 19:17 38.66234 -9.19948 2582 ft 161 kts 18°
2026-05-07 19:18 38.67229 -9.19416 2367 ft 155 kts 17°
2026-05-07 19:18 38.68220 -9.18888 2154 ft 154 kts 17°
2026-05-07 19:18 38.69153 -9.18390 1944 ft 146 kts 16°
2026-05-07 19:18 38.70019 -9.17927 1785 ft 136 kts 16°
2026-05-07 19:19 38.70879 -9.17469 1583 ft 131 kts 17°
2026-05-07 19:19 38.71709 -9.17027 1424 ft 132 kts 17°
2026-05-07 19:19 38.72523 -9.16591 1248 ft 131 kts 16°
2026-05-07 19:19 38.73326 -9.16163 1077 ft 131 kts 18°
2026-05-07 19:20 38.74121 -9.15737 915 ft 131 kts 17°
2026-05-07 19:20 38.74963 -9.15287 733 ft 132 kts 19°
2026-05-07 19:20 38.75826 -9.14806 576 ft 136 kts 17°
2026-05-07 19:20 38.76702 -9.14347 375 ft 133 kts 15°
2026-05-07 19:21 38.77470 -9.13948 372 ft 100 kts 22°
2026-05-07 19:21 38.78020 -9.13653 372 ft 73 kts 22°
2026-05-07 19:21 38.78317 -9.13428 375 ft 38 kts 44°
2026-05-07 19:21 38.78362 -9.13363 375 ft 5 kts 53°
2026-05-07 19:22 38.78378 -9.13310 370 ft 10 kts 83°
2026-05-07 19:22 38.78325 -9.13266 370 ft 11 kts 186°
2026-05-07 19:22 38.78244 -9.13304 369 ft 13 kts 203°
2026-05-07 19:22 38.78151 -9.13354 368 ft 15 kts 202°
2026-05-07 19:23 38.78046 -9.13408 369 ft 16 kts 202°
2026-05-07 19:23 38.77935 -9.13467 364 ft 19 kts 204°
2026-05-07 19:23 38.77815 -9.13533 366 ft 20 kts 203°
2026-05-07 19:23 38.77685 -9.13599 367 ft 18 kts 191°
2026-05-07 19:24 38.77571 -9.13579 360 ft 14 kts 167°
2026-05-07 19:24 38.77476 -9.13552 358 ft 7 kts 168°
2026-05-07 19:24 38.77426 -9.13537 359 ft 0 kts 167°
2026-05-07 19:25 38.77419 -9.13536 360 ft 5 kts 168°
2026-05-07 19:26 38.77338 -9.13513 357 ft 17 kts 168°
2026-05-07 19:26 38.77217 -9.13481 350 ft 19 kts 168°
2026-05-07 19:26 38.77133 -9.13458 357 ft 10 kts 171°
2026-05-07 19:26 38.77099 -9.13483 359 ft 4 kts 238°
2026-05-07 19:27 38.77081 -9.13515 359 ft 4 kts 226°
2026-05-07 19:27 38.77052 -9.13532 352 ft 5 kts 193°
2026-05-07 19:27 38.77024 -9.13554 362 ft 4 kts 233°
2026-05-07 19:27 38.77018 -9.13582 360 ft 3 kts 266°
2026-05-07 19:28 38.77017 -9.13596 352 ft 0 kts 263°
2026-05-07 19:28 38.77016 -9.13600 352 ft 2 kts 256°
2026-05-07 19:28 38.77013 -9.13617 359 ft 0 kts 257°
2026-05-07 19:28 38.77012 -9.13622 359 ft 1 kts 257°